Weather in Rasdhoo

Maldives     4°15′47″N   72°59′30″E
temp.,
°C
wind,
m/s
gust,
m/s
humid.,
%
clouds,
%
prec.,
mm/h
press.,
hPa
HPBL,
m
10 august, wed
wed1023:00+27w5682100 1.9 1009564
02:00+27w568080 1.4 1008501
05:00+27wnw457924 2.3 1008550
08:00+27w347898 0.0 1009637
11:00+27wnw3477100 0.0 1009588
14:00+28nw3477100 0.0 1007658
17:00+28nw45768 0.0 1007691
20:00+28nw347953 0.0 1008655
11 august, thu
thu1123:00+27wnw23805 0.0 1009442
02:00+27wnw34805 1.6 1008395
05:00+27wnw338027 2.3 1008427
08:00+27wnw237741 0.0 1010490
11:00+28wsw1273100 0.0 1009507
14:00+28nw127299 0.0 1008578
17:00+28w12715 0.0 1008696
20:00+28w22748 0.0 1009548
12 august, fri
fri1223:00+28ssw117447 0.1 1010378
02:00+27s1176100 0.5 1009294
05:00+27wsw117841 1.2 1010113
08:00+27sw11765 0.1 1011289
11:00+27ssw117564 0.1 1010393
14:00+27nw117346 0.0 1008551
17:00+28nnw117162 0.0 1008736
20:00+28nne11716 0.0 1010609
13 august, sat
sat1323:00+27ene117331 0.0 1011459
02:00+27ese007485 0.0 1009371
05:00+27e117559 0.0 1009413
08:00+27ese007546 0.0 1010389
11:00+27wnw007498 0.0 1010466
14:00+27wnw117389 0.0 1008663
17:00+28wsw0071100 0.0 1008709
20:00+28n117373 0.0 1010564
14 august, sun
sun1423:00+27nne1174100 0.0 1010433
02:00+27nnw117698 0.1 1009370
05:00+27n017746 0.3 1009208
08:00+27ene117729 0.1 1011406
11:00+27ne227654 0.2 1011478
14:00+27nnw127496 0.0 1009550
17:00+28n227281 0.0 1009653
20:00+27nne2275100 0.0 1010653